weather station
Area: 11014 km2
The highest point: Tok (865 m.s.l.)
Total stations: 46
Stations online: 44
Stations offline: 2
Current weather
9°C

Meteorological map - weather stations in Středočeský

. The meteorological maps show weather information from WARIO weather stations

Weather stations Středočeský

 UpdatesNameStatusTemperatureHumidityWind speedWind direction
24.9.2018 10:26Kolín13.8 °C58.7 %1.2 m/s N
24.9.2018 10:26Jílové u Prahy - Borek7.8 °C84.6 %1.5 m/s SE
24.9.2018 10:26Králův Dvůr8.3 °C73.0 %3.1 m/s SW
24.9.2018 10:26Chotětov10.2 °C69.5 %2.1 m/s W
24.9.2018 10:26Davle11.2 °C67.9 %2.3 m/s E
24.9.2018 10:25Opolany10.3 °C67.0 %3.4 m/s NW
24.9.2018 10:26Hostín u Vojkovic10.4 °C74.4 %4.1 m/s NW
24.9.2018 10:26Sedlčany8.8 °C72.7 %2.3 m/s W
24.9.2018 10:26Mělník10.0 °C64.6 %4.1 m/s S
24.9.2018 10:25Jiřetice7.0 °C84.8 %3.7 m/s W
24.9.2018 10:26Kněžmost-12.0 °C76.1 %1.9 m/s SE
24.9.2018 10:25Kojetice10.3 °C69.1 %3.7 m/s N
24.9.2018 10:26Ledečky9.0 °C84.8 %3.8 m/s N
24.9.2018 10:25Libeř10.6 °C71.9 %1.7 m/s W
24.9.2018 10:26Sazená8.5 °C74.9 %9.3 m/s W
24.9.2018 10:25Malý Újezd9.5 °C73.7 %4.7 m/s NW
24.9.2018 10:25Zdice8.9 °C76.4 %3.6 m/s NW
24.9.2018 10:25Červený Újezd6.9 °C85.8 %3.0 m/s W
24.9.2018 10:26Mělník10.3 °C62.5 %3.2 m/s SW
24.9.2018 10:26Jince8.6 °C69.5 %3.8 m/s NE
24.9.2018 10:25Olešná6.7 °C84.0 %2.9 m/s SW
24.9.2018 10:25Srby7.7 °C81.9 %3.2 m/s NW
24.9.2018 10:26Kralupy nad Vltavou11.5 °C66.5 %2.7 m/s W
23.9.2018 22:26Mrač13.6 °C95.7 %3.2 m/s NW
24.9.2018 10:25Velvary10.7 °C62.0 %2.9 m/s SW
24.9.2018 10:25Dolní Jirčany7.4 °C92.1 %5.7 m/s NW
24.9.2018 10:26Mladá Boleslav9.0 °C83.3 %0.0 m/s E
24.9.2018 10:26Líbeznice9.5 °C71.0 %7.3 m/s N
3.9.2018 20:47Mratín19.4 °C100.0 %0.0 m/s NW
24.9.2018 10:26Mšecké Žehrovice7.1 °C83.2 %3.9 m/s N
24.9.2018 10:25Odolena voda9.3 °C68.7 %6.3 m/s NW
24.9.2018 10:26Oseček11.3 °C90.0 %2.7 m/s NW
24.9.2018 10:26Pátek10.5 °C69.6 %6.5 m/s NW
24.9.2018 10:25Radlice8.7 °C73.1 %1.5 m/s NW
24.9.2018 10:26Husinec-Řež10.6 °C62.9 %1.5 m/s N
24.9.2018 10:26Semice9.6 °C74.9 %3.7 m/s SE
24.9.2018 10:25Slaný9.3 °C72.9 %1.5 m/s W
24.9.2018 10:25Svojetice6.4 °C75.5 %5.0 m/s NW
24.9.2018 10:26Kosmonosy7.6 °C84.7 %2.0 m/s E
24.9.2018 10:26Toušice9.3 °C68.2 %4.5 m/s NE
24.9.2018 10:25Srby7.9 °C80.3 %2.5 m/s N
24.9.2018 10:26Vestec9.5 °C82.3 %3.4 m/s N
24.9.2018 10:25Nebřich7.4 °C87.6 %0.0 m/s W
24.9.2018 10:26Vrbčany9.7 °C74.3 %2.3 m/s W
24.9.2018 10:26Všetaty9.1 °C76.5 %3.9 m/s W
24.9.2018 10:26Zibohlavy8.1 °C88.7 %2.6 m/s W
Email notifications
Enter your email address to subscribe to notifications about news at warioweather.com. Your email address will not be used for any purpose other than sending these emails and will not be provided to any third party. The subscription can be ended at any time.
All data are only indicative. The portal administrator has no responsibility for potentially incorrect data and related consequences. Publishing or further sharing of content from www.warioweather.com is only allowed with written consent from WANET s.r.o.